Mount Holly, NJ

5:09 PM EST on December 08, 2019 (GMT -0500)
South Jersey Regional

Weather History for KVAY - October, 2019

Change the Weather History Date:

Saturday, October 26, 2019

  Actual Average (KPNE) Record (KPNE)
Temperature  
Mean Temperature 55 °F -  
Max Temperature 66 °F 60 °F 72 °F (2010)
Min Temperature 46 °F 41 °F 33 °F (2006)
Degree Days  
Heating Degree Days 10    
Growing Degree Days 5 (Base 50)    
Moisture  
Dew Point 48 °F    
Average Humidity 82    
Maximum Humidity 100    
Minimum Humidity 47    
Precipitation  
Precipitation 0.00 in - - ()
Sea Level Pressure  
Sea Level Pressure 30.20 in    
Wind  
Wind Speed 1 mph (East)    
Max Wind Speed 9 mph    
Max Gust Speed -    
Visibility 6 miles    
Events Fog , Rain    
Averages and records for this station are not official NWS values.
T = Trace of Precipitation, MM = Missing Value Source: NWS Daily Summary

Daily Weather History Graph

Daily Weather History Graph

Search for Another Location

Airport or City:

Astronomy

Oct. 26, 2019 Rise Set
Actual Time 7:21 AM EDT 6:04 PM EDT
Civil Twilight 6:53 AM EDT 6:32 PM EDT
Nautical Twilight 6:21 AM EDT 7:04 PM EDT
Astronomical Twilight 5:50 AM EDT 7:35 PM EDT
Moon 5:14 AM EDT (10/26) 5:38 PM EDT (10/26)
Length of Visible Light 11h 38m
Length of Day
10h 43m
Waning Crescent, 3% of the Moon is Illuminated
Oct 26
Waning Crescent
Oct 27
New
Nov 4
First Quarter
Nov 12
Full
Nov 19
Last Quarter

Hourly Weather History & Observations

Time (EDT) Temp. Dew Point Humidity Pressure Visibility Wind Dir Wind Speed Gust Speed Precip Events Conditions
12:54 AM 57.0 °F 54.0 °F 89% 30.17 in 10.0 mi Calm Calm - N/A   Unknown
1:54 AM 57.0 °F 54.0 °F 89% 30.17 in 10.0 mi Calm Calm - N/A   Overcast
2:54 AM 57.0 °F 54.0 °F 89% 30.17 in 10.0 mi Calm Calm - N/A   Unknown
3:54 AM 55.0 °F 53.1 °F 93% 30.17 in 9.0 mi Calm Calm - N/A   Clear
4:39 AM 53.1 °F 51.1 °F 93% 30.18 in 1.2 mi Calm Calm - N/A   Mist
4:41 AM 53.1 °F 51.1 °F 93% 30.18 in 0.8 mi Calm Calm - N/A   Mist
4:54 AM 52.0 °F 51.1 °F 97% 30.18 in 0.2 mi Calm Calm - N/A Fog Fog
5:31 AM 50.0 °F 48.9 °F 96% 30.18 in 0.8 mi Calm Calm - N/A   Mist
5:34 AM 50.0 °F 48.9 °F 96% 30.18 in 1.2 mi Calm Calm - N/A   Mist
5:46 AM 48.9 °F 48.0 °F 97% 30.18 in 0.8 mi Calm Calm - N/A   Mist
5:54 AM 48.9 °F 46.9 °F 93% 30.18 in 0.8 mi Calm Calm - N/A   Mist
6:43 AM 48.0 °F 48.0 °F 100% 30.19 in - Calm Calm - N/A   Unknown
6:52 AM 48.2 °F 48.2 °F 100% 30.19 in 0.5 mi Calm Calm - N/A Fog Fog
6:54 AM 48.9 °F 48.0 °F 97% 30.19 in 0.5 mi Calm Calm - N/A Fog Fog
7:01 AM 48.9 °F 48.0 °F 97% 30.20 in 1.2 mi Calm Calm - N/A   Mist
7:06 AM 48.0 °F 46.9 °F 96% 30.20 in 3.0 mi Calm Calm - N/A   Mist
7:46 AM 46.9 °F 46.0 °F 97% 30.21 in 1.8 mi Calm Calm - N/A   Mist
7:54 AM 48.0 °F 46.0 °F 93% 30.21 in 1.8 mi Calm Calm - N/A   Mist
8:03 AM 48.0 °F 46.9 °F 96% 30.22 in 2.5 mi Calm Calm - N/A   Mist
8:29 AM 50.0 °F 48.0 °F 93% 30.23 in 5.0 mi Calm Calm - N/A   Mist
8:54 AM 53.1 °F 51.1 °F 93% 30.24 in 8.0 mi North 5.8 mph - N/A   Unknown
9:54 AM 60.1 °F 46.9 °F 62% 30.25 in 10.0 mi Variable 4.6 mph - N/A   Clear
10:54 AM 62.1 °F 43.0 °F 50% 30.24 in 10.0 mi NNE 9.2 mph - N/A   Clear
11:54 AM 63.0 °F 43.0 °F 48% 30.24 in 10.0 mi Variable 5.8 mph - N/A   Clear
12:54 PM 64.9 °F 44.1 °F 47% 30.22 in 10.0 mi Variable 4.6 mph - N/A   Clear
1:54 PM 64.9 °F 46.0 °F 50% 30.20 in 10.0 mi East 5.8 mph - N/A   Clear
2:54 PM 64.9 °F 46.9 °F 52% 30.20 in 10.0 mi Variable 6.9 mph - N/A   Scattered Clouds
3:54 PM 62.1 °F 46.9 °F 58% 30.21 in 10.0 mi ESE 3.5 mph - N/A   Overcast
4:54 PM 59.0 °F 48.9 °F 69% 30.22 in 10.0 mi SE 5.8 mph - 0.00 in Rain Light Rain
5:54 PM 57.0 °F 50.0 °F 77% 30.22 in 10.0 mi East 3.5 mph - 0.00 in Rain Light Rain
6:54 PM 55.9 °F 48.9 °F 77% 30.23 in 10.0 mi ESE 5.8 mph - 0.00 in   Mostly Cloudy
7:54 PM 55.9 °F 48.0 °F 75% 30.22 in 10.0 mi ESE 3.5 mph - N/A   Overcast
8:54 PM 55.9 °F 48.0 °F 75% 30.23 in 10.0 mi Calm Calm - N/A   Overcast
9:54 PM 55.9 °F 48.0 °F 75% 30.23 in 10.0 mi Calm Calm - N/A   Overcast
10:54 PM 55.9 °F 48.9 °F 77% 30.22 in 10.0 mi ESE 3.5 mph - N/A   Mostly Cloudy
11:54 PM 55.0 °F 48.9 °F 80% 30.20 in 10.0 mi ENE 3.5 mph - N/A   Mostly Cloudy